Weather History for PASX - April, 2013

Change the Weather History Date:

Friday, April 5, 2013

  Actual Average Record
Temperature  
Mean Temperature 22 °F -  
Max Temperature 35 °F 38 °F 49 °F (1958)
Min Temperature 10 °F 22 °F -4 °F (1985)
Degree Days  
Heating Degree Days 42    
Moisture  
Dew Point 8 °F    
Average Humidity 53    
Maximum Humidity 85    
Minimum Humidity 32    
Precipitation  
Precipitation 0.00 in - - ()
Sea Level Pressure  
Sea Level Pressure 29.59 in    
Wind  
Wind Speed 2 mph (NNW)    
Max Wind Speed 9 mph    
Max Gust Speed -    
Visibility 10 miles    
Events      
Averages and records for this station are not official NWS values.
T = Trace of Precipitation, MM = Missing Value Source: NWS Daily Summary

Daily Weather History Graph

Daily Weather History Graph

Search for Another Location

Airport or City:

Trip Planner

Search our weather history database for the weather conditions in past years. The results will help you decide how hot, cold, wet, or windy it might be!

Date:

Astronomy

Apr. 05, 2013 Rise Set
Actual Time 7:14 AM AKDT 9:00 PM AKDT
Civil Twilight 6:30 AM AKDT 9:44 PM AKDT
Nautical Twilight 5:33 AM AKDT 10:41 PM AKDT
Astronomical Twilight 4:24 AM AKDT 11:52 PM AKDT
Moon 5:38 AM AKDT (4/5) 3:31 PM AKDT (4/5)
Length of Visible Light 15h 14m
Length of Day
13h 45m
Waning Crescent, 22% of the Moon is Illuminated
Apr 5
Waning Crescent
Apr 10
New
Apr 18
First Quarter
Apr 25
Full
May 2
Last Quarter

Hourly Weather History & Observations

Time (AKDT) Temp. Windchill Dew Point Humidity Pressure Visibility Wind Dir Wind Speed Gust Speed Precip Events Conditions
12:16 AM 23.0 °F - 12.2 °F 63% 29.75 in 10.0 mi Calm Calm - N/A   Clear
12:36 AM 24.8 °F - 12.2 °F 59% 29.75 in 10.0 mi Calm Calm - N/A   Clear
12:56 AM 26.6 °F - 10.4 °F 51% 29.74 in 10.0 mi Calm Calm - N/A   Clear
1:16 AM 21.2 °F - 10.4 °F 63% 29.74 in 10.0 mi Calm Calm - N/A   Clear
1:36 AM 23.0 °F - 10.4 °F 59% 29.74 in 10.0 mi Calm Calm - N/A   Clear
1:56 AM 19.4 °F 14.3 °F 10.4 °F 68% 29.73 in 10.0 mi ESE 3.5 mph - N/A   Clear
2:16 AM 21.2 °F - 12.2 °F 68% 29.73 in 10.0 mi Calm Calm - N/A   Clear
2:36 AM 19.4 °F - 12.2 °F 74% 29.72 in 10.0 mi Calm Calm - N/A   Clear
2:56 AM 17.6 °F 12.3 °F 10.4 °F 73% 29.72 in 10.0 mi NE 3.5 mph - N/A   Clear
3:16 AM 15.8 °F - 8.6 °F 73% 29.71 in 10.0 mi Calm Calm - N/A   Clear
3:36 AM 15.8 °F - 10.4 °F 79% 29.71 in 10.0 mi Calm Calm - N/A   Clear
3:56 AM 15.8 °F - 10.4 °F 79% 29.71 in 10.0 mi Calm Calm - N/A   Clear
4:16 AM 15.8 °F - 10.4 °F 79% 29.70 in 10.0 mi Calm Calm - N/A   Clear
4:36 AM 14.0 °F - 8.6 °F 79% 29.69 in 10.0 mi Calm Calm - N/A   Clear
4:56 AM 14.0 °F - 8.6 °F 79% 29.69 in 10.0 mi Calm Calm - N/A   Clear
5:16 AM 14.0 °F - 8.6 °F 79% 29.68 in 10.0 mi Calm Calm - N/A   Clear
5:36 AM 12.2 °F - 6.8 °F 79% 29.67 in 10.0 mi Calm Calm - N/A   Clear
5:56 AM 12.2 °F - 6.8 °F 79% 29.66 in 10.0 mi Calm Calm - N/A   Clear
6:16 AM 12.2 °F - 6.8 °F 79% 29.66 in 10.0 mi Calm Calm - N/A   Clear
6:36 AM 10.4 °F 4.0 °F 6.8 °F 85% 29.65 in 10.0 mi ENE 3.5 mph - N/A   Clear
6:56 AM 10.4 °F - 5.0 °F 79% 29.64 in 10.0 mi Calm Calm - N/A   Clear
7:16 AM 10.4 °F - 6.8 °F 85% 29.64 in 10.0 mi Calm Calm - N/A   Clear
7:36 AM 10.4 °F 2.2 °F 6.8 °F 85% 29.64 in 10.0 mi East 4.6 mph - N/A   Clear
7:56 AM 12.2 °F 6.1 °F 8.6 °F 85% 29.64 in 10.0 mi NE 3.5 mph - N/A   Clear
8:16 AM 12.2 °F - 6.8 °F 79% 29.63 in 10.0 mi Calm Calm - N/A   Clear
8:36 AM 12.2 °F - 8.6 °F 85% 29.63 in 10.0 mi Calm Calm - N/A   Clear
8:56 AM 15.8 °F - 8.6 °F 73% 29.62 in 10.0 mi Calm Calm - N/A   Clear
9:16 AM 15.8 °F - 8.6 °F 73% 29.61 in 10.0 mi Calm Calm - N/A   Clear
9:36 AM 19.4 °F - 12.2 °F 74% 29.61 in 10.0 mi Calm Calm - N/A   Clear
9:56 AM 19.4 °F - 10.4 °F 68% 29.61 in 10.0 mi Calm Calm - N/A   Clear
10:16 AM 24.8 °F - 12.2 °F 59% 29.60 in 10.0 mi Calm Calm - N/A   Clear
10:36 AM 26.6 °F - 10.4 °F 51% 29.60 in 10.0 mi Calm Calm - N/A   Clear
10:56 AM 26.6 °F 19.1 °F 6.8 °F 43% 29.59 in 10.0 mi North 6.9 mph - N/A   Clear
11:16 AM 26.6 °F 19.1 °F 5.0 °F 40% 29.59 in 10.0 mi North 6.9 mph - N/A   Clear
11:36 AM 28.4 °F 22.2 °F 5.0 °F 37% 29.58 in 10.0 mi NNE 5.8 mph - N/A   Clear
11:56 AM 28.4 °F 24.6 °F 3.2 °F 34% 29.58 in 10.0 mi North 3.5 mph - N/A   Clear
12:16 PM 28.4 °F 24.6 °F 5.0 °F 37% 29.58 in 10.0 mi ENE 3.5 mph - N/A   Clear
12:36 PM 30.2 °F - 5.0 °F 34% 29.57 in 10.0 mi Calm Calm - N/A   Clear
12:56 PM 30.2 °F 24.3 °F 3.2 °F 32% 29.57 in 10.0 mi NNW 5.8 mph - N/A   Clear
1:16 PM 30.2 °F - 6.8 °F 37% 29.56 in 10.0 mi Calm Calm - N/A   Clear
1:36 PM 30.2 °F 26.7 °F 5.0 °F 34% 29.55 in 10.0 mi NE 3.5 mph - N/A   Clear
1:56 PM 32.0 °F 28.7 °F 5.0 °F 32% 29.55 in 10.0 mi NNE 3.5 mph - N/A   Clear
2:16 PM 33.8 °F - 6.8 °F 32% 29.54 in 10.0 mi Calm Calm - N/A   Clear
2:36 PM 33.8 °F - 6.8 °F 32% 29.54 in 10.0 mi Calm Calm - N/A   Clear
2:56 PM 33.8 °F 29.6 °F 6.8 °F 32% 29.53 in 10.0 mi NNW 4.6 mph - N/A   Clear
3:16 PM 33.8 °F 28.6 °F 8.6 °F 35% 29.53 in 10.0 mi WNW 5.8 mph - N/A   Clear
3:36 PM 33.8 °F 27.7 °F 8.6 °F 35% 29.52 in 10.0 mi NW 6.9 mph - N/A   Clear
3:56 PM 33.8 °F 27.0 °F 8.6 °F 35% 29.52 in 10.0 mi NW 8.1 mph - N/A   Clear
4:16 PM 35.6 °F 28.6 °F 8.6 °F 33% 29.51 in 10.0 mi WNW 9.2 mph - N/A   Clear
4:36 PM 35.6 °F 30.7 °F 10.4 °F 35% 29.50 in 10.0 mi WNW 5.8 mph - N/A   Clear
4:56 PM 35.6 °F 29.2 °F 8.6 °F 33% 29.50 in 10.0 mi WNW 8.1 mph - N/A   Clear
5:16 PM 35.6 °F 29.9 °F 8.6 °F 33% 29.50 in 10.0 mi NW 6.9 mph - N/A   Clear
5:36 PM 35.6 °F 30.7 °F 8.6 °F 33% 29.49 in 10.0 mi WNW 5.8 mph - N/A   Clear
5:56 PM 35.6 °F 29.9 °F 8.6 °F 33% 29.49 in 10.0 mi NW 6.9 mph - N/A   Clear
6:16 PM 35.6 °F 32.8 °F 8.6 °F 33% 29.49 in 10.0 mi NW 3.5 mph - N/A   Partly Cloudy
6:36 PM 35.6 °F 32.8 °F 8.6 °F 33% 29.48 in 10.0 mi NNW 3.5 mph - N/A   Mostly Cloudy
6:56 PM 35.6 °F 31.7 °F 8.6 °F 33% 29.48 in 10.0 mi NW 4.6 mph - N/A   Overcast
7:16 PM 35.6 °F 32.8 °F 8.6 °F 33% 29.48 in 10.0 mi North 3.5 mph - N/A   Overcast
7:36 PM 33.8 °F 29.6 °F 8.6 °F 35% 29.48 in 10.0 mi NW 4.6 mph - N/A   Mostly Cloudy
7:56 PM 33.8 °F 30.8 °F 8.6 °F 35% 29.48 in 10.0 mi NNW 3.5 mph - N/A   Overcast
8:16 PM 33.8 °F 30.8 °F 6.8 °F 32% 29.48 in 10.0 mi NNE 3.5 mph - N/A   Overcast
8:36 PM 33.8 °F - 6.8 °F 32% 29.47 in 10.0 mi Calm Calm - N/A   Overcast
8:56 PM 33.8 °F - 6.8 °F 32% 29.47 in 10.0 mi Calm Calm - N/A   Overcast
9:16 PM 32.0 °F - 8.6 °F 38% 29.48 in 10.0 mi Calm Calm - N/A   Overcast
9:36 PM 32.0 °F - 6.8 °F 35% 29.48 in 10.0 mi Calm Calm - N/A   Overcast
9:56 PM 30.2 °F - 8.6 °F 40% 29.48 in 10.0 mi Calm Calm - N/A   Overcast
10:16 PM 28.4 °F - 10.4 °F 47% 29.48 in 10.0 mi Calm Calm - N/A   Overcast
10:36 PM 26.6 °F - 12.2 °F 55% 29.48 in 10.0 mi Calm Calm - N/A   Overcast
10:56 PM 26.6 °F 22.6 °F 12.2 °F 55% 29.48 in 10.0 mi West 3.5 mph - N/A   Overcast
11:16 PM 28.4 °F 24.6 °F 8.6 °F 43% 29.48 in 10.0 mi West 3.5 mph - N/A   Overcast
11:36 PM 26.6 °F 21.2 °F 10.4 °F 51% 29.48 in 10.0 mi West 4.6 mph - N/A   Mostly Cloudy
11:56 PM 24.8 °F - 10.4 °F 54% 29.48 in 10.0 mi Calm Calm - N/A   Scattered Clouds